THA584 VTBS-VDPP

Flight info

Callsign THA584
Flight time 0h 49m
Altitude 35000
Route GOMES1J GOMES N506 BOKAK SOBEN3A
Aircraft A320/M-SDE3FGHIRWY/LB1

Departure

Time 2026-04-30 12:12
Airport Suvarnabhumi Airport (VTBS)

Arrival

Time 2026-04-30 13:02
Airport Phnom Penh International Airport (VDPP)
Time Latitude Longitude Altitude Speed Heading
2026-04-30 11:52 13.68641 100.75367 13 ft 0 kts 284°
2026-04-30 12:04 13.68640 100.75372 13 ft 3 kts 284°
2026-04-30 12:04 13.68634 100.75396 15 ft 3 kts 285°
2026-04-30 12:04 13.68628 100.75420 15 ft 3 kts 283°
2026-04-30 12:04 13.68623 100.75444 13 ft 3 kts 272°
2026-04-30 12:05 13.68625 100.75465 13 ft 3 kts 227°
2026-04-30 12:05 13.68642 100.75473 16 ft 3 kts 194°
2026-04-30 12:05 13.68652 100.75476 13 ft 0 kts 194°
2026-04-30 12:08 13.68647 100.75475 13 ft 3 kts 194°
2026-04-30 12:08 13.68606 100.75464 13 ft 8 kts 194°
2026-04-30 12:09 13.68544 100.75447 13 ft 10 kts 193°
2026-04-30 12:09 13.68497 100.75495 13 ft 12 kts 102°
2026-04-30 12:09 13.68475 100.75588 13 ft 15 kts 105°
2026-04-30 12:09 13.68444 100.75694 13 ft 11 kts 107°
2026-04-30 12:10 13.68420 100.75773 14 ft 10 kts 112°
2026-04-30 12:10 13.68411 100.75789 15 ft 2 kts 128°
2026-04-30 12:10 13.68394 100.75800 14 ft 4 kts 154°
2026-04-30 12:10 13.68356 100.75807 15 ft 7 kts 173°
2026-04-30 12:11 13.68297 100.75815 15 ft 10 kts 172°
2026-04-30 12:11 13.68217 100.75827 13 ft 13 kts 171°
2026-04-30 12:11 13.68116 100.75827 13 ft 18 kts 192°
2026-04-30 12:11 13.67764 100.75741 11 ft 90 kts 193°
2026-04-30 12:12 13.66959 100.75542 14 ft 145 kts 193°
2026-04-30 12:12 13.65863 100.75244 283 ft 166 kts 192°
2026-04-30 12:12 13.64787 100.74931 1071 ft 157 kts 194°
2026-04-30 12:12 13.63634 100.74811 1421 ft 177 kts 179°
2026-04-30 12:13 13.62322 100.74873 1697 ft 200 kts 176°
2026-04-30 12:13 13.60876 100.74963 2100 ft 212 kts 175°
2026-04-30 12:13 13.59480 100.75458 2687 ft 224 kts 140°
2026-04-30 12:13 13.58626 100.76870 3105 ft 250 kts 104°
2026-04-30 12:14 13.58380 100.78671 3771 ft 262 kts 98°
2026-04-30 12:14 13.57979 100.80505 4675 ft 265 kts 109°
2026-04-30 12:14 13.57506 100.82349 5538 ft 270 kts 99°
2026-04-30 12:14 13.57176 100.84260 6393 ft 273 kts 103°
2026-04-30 12:15 13.56747 100.86179 7171 ft 278 kts 105°
2026-04-30 12:15 13.56275 100.88125 7934 ft 284 kts 105°
2026-04-30 12:15 13.55789 100.90105 8700 ft 288 kts 104°
2026-04-30 12:15 13.55305 100.92122 9467 ft 293 kts 105°
2026-04-30 12:16 13.54820 100.94184 10102 ft 303 kts 104°
2026-04-30 12:16 13.54315 100.96375 10318 ft 326 kts 104°
2026-04-30 12:16 13.53785 100.98693 10749 ft 338 kts 104°
2026-04-30 12:16 13.53247 101.01057 11375 ft 343 kts 105°
2026-04-30 12:17 13.52158 101.05881 12689 ft 350 kts 105°
2026-04-30 12:17 13.51604 101.08326 13334 ft 353 kts 105°
2026-04-30 12:17 13.51042 101.10796 13931 ft 356 kts 105°
2026-04-30 12:18 13.50476 101.13287 14475 ft 360 kts 105°
2026-04-30 12:18 13.49906 101.15800 15030 ft 363 kts 105°
2026-04-30 12:18 13.49330 101.18335 15576 ft 366 kts 104°
2026-04-30 12:18 13.48749 101.20894 16117 ft 369 kts 104°
2026-04-30 12:19 13.48163 101.23475 16659 ft 373 kts 104°
2026-04-30 12:19 13.47572 101.26078 17202 ft 376 kts 105°
2026-04-30 12:19 13.46976 101.28704 17744 ft 379 kts 104°
2026-04-30 12:19 13.46376 101.31346 18265 ft 382 kts 104°
2026-04-30 12:20 13.45771 101.34011 18738 ft 384 kts 104°
2026-04-30 12:20 13.45158 101.36700 19206 ft 387 kts 104°
2026-04-30 12:20 13.44540 101.39398 19676 ft 390 kts 104°
2026-04-30 12:20 13.43917 101.42119 20141 ft 393 kts 104°
2026-04-30 12:21 13.43290 101.44861 20606 ft 395 kts 104°
2026-04-30 12:21 13.42659 101.47621 21067 ft 398 kts 104°
2026-04-30 12:21 13.42022 101.50400 21504 ft 401 kts 104°
2026-04-30 12:21 13.41378 101.53205 21946 ft 404 kts 104°
2026-04-30 12:22 13.40733 101.56023 22378 ft 407 kts 104°
2026-04-30 12:22 13.39957 101.58782 22799 ft 409 kts 111°
2026-04-30 12:22 13.38762 101.61434 23223 ft 411 kts 117°
2026-04-30 12:22 13.37482 101.64069 23605 ft 414 kts 117°
2026-04-30 12:23 13.36193 101.66725 23940 ft 417 kts 117°
2026-04-30 12:23 13.34897 101.69402 24261 ft 420 kts 117°
2026-04-30 12:23 13.33595 101.72101 24596 ft 423 kts 117°
2026-04-30 12:23 13.32286 101.74821 24921 ft 426 kts 117°
2026-04-30 12:24 13.30967 101.77558 25264 ft 429 kts 117°
2026-04-30 12:24 13.29640 101.80306 25592 ft 432 kts 117°
2026-04-30 12:24 13.28301 101.83077 25931 ft 434 kts 117°
2026-04-30 12:24 13.26951 101.85867 26265 ft 437 kts 116°
2026-04-30 12:25 13.25596 101.88672 26581 ft 440 kts 116°
2026-04-30 12:25 13.24233 101.91495 26910 ft 443 kts 116°
2026-04-30 12:25 13.22862 101.94328 27228 ft 446 kts 116°
2026-04-30 12:25 13.21479 101.97185 27541 ft 448 kts 116°
2026-04-30 12:26 13.20084 102.00067 27825 ft 451 kts 116°
2026-04-30 12:26 13.18683 102.02962 28111 ft 454 kts 116°
2026-04-30 12:26 13.17275 102.05869 28443 ft 457 kts 116°
2026-04-30 12:26 13.15852 102.08801 28757 ft 460 kts 116°
2026-04-30 12:27 13.14420 102.11754 29082 ft 463 kts 116°
2026-04-30 12:27 13.12985 102.14717 29416 ft 466 kts 116°
2026-04-30 12:27 13.11538 102.17703 29735 ft 469 kts 116°
2026-04-30 12:27 13.10081 102.20706 30036 ft 472 kts 116°
2026-04-30 12:28 13.08629 102.23693 30294 ft 474 kts 116°
2026-04-30 12:28 13.07151 102.26729 30554 ft 477 kts 116°
2026-04-30 12:28 13.05649 102.29818 30804 ft 480 kts 116°
2026-04-30 12:28 13.04163 102.32879 30887 ft 475 kts 116°
2026-04-30 12:29 13.02715 102.35859 30918 ft 461 kts 116°
2026-04-30 12:29 13.01310 102.38747 30916 ft 456 kts 116°
2026-04-30 12:29 12.98494 102.44534 30914 ft 452 kts 116°
2026-04-30 12:30 12.95666 102.50288 30899 ft 452 kts 118°
2026-04-30 12:30 12.92514 102.55850 30911 ft 451 kts 122°
2026-04-30 12:31 12.89139 102.61285 30918 ft 451 kts 123°
2026-04-30 12:31 12.85791 102.66733 30915 ft 451 kts 122°
2026-04-30 12:32 12.82514 102.72224 30915 ft 451 kts 121°
2026-04-30 12:32 12.79259 102.77727 30907 ft 451 kts 121°
2026-04-30 12:33 12.75997 102.83218 30913 ft 451 kts 122°
2026-04-30 12:33 12.72737 102.88660 30924 ft 451 kts 122°
2026-04-30 12:34 12.69456 102.94135 30917 ft 450 kts 122°
2026-04-30 12:34 12.66181 102.99600 30916 ft 450 kts 122°
2026-04-30 12:35 12.62907 103.05066 30837 ft 447 kts 122°
2026-04-30 12:35 12.61297 103.07758 30602 ft 441 kts 122°
2026-04-30 12:35 12.59699 103.10431 30374 ft 438 kts 122°
2026-04-30 12:36 12.58110 103.13085 30162 ft 436 kts 122°
2026-04-30 12:36 12.56532 103.15722 29932 ft 431 kts 122°
2026-04-30 12:36 12.54975 103.18323 29664 ft 425 kts 122°
2026-04-30 12:36 12.53436 103.20889 29206 ft 421 kts 122°
2026-04-30 12:37 12.51910 103.23429 28742 ft 418 kts 122°
2026-04-30 12:37 12.50392 103.25955 28294 ft 415 kts 122°
2026-04-30 12:37 12.48885 103.28462 27850 ft 412 kts 122°
2026-04-30 12:37 12.47408 103.30918 27429 ft 409 kts 122°
2026-04-30 12:38 12.45916 103.33396 26995 ft 407 kts 122°
2026-04-30 12:38 12.44440 103.35851 26572 ft 405 kts 122°
2026-04-30 12:38 12.42968 103.38302 26173 ft 402 kts 122°
2026-04-30 12:38 12.41508 103.40735 25753 ft 400 kts 122°
2026-04-30 12:39 12.40176 103.43207 25535 ft 392 kts 116°
2026-04-30 12:39 12.39040 103.45691 25456 ft 379 kts 115°
2026-04-30 12:39 12.37949 103.48107 25366 ft 367 kts 115°
2026-04-30 12:39 12.36895 103.50458 25293 ft 363 kts 115°
2026-04-30 12:40 12.35846 103.52800 25225 ft 363 kts 115°
2026-04-30 12:40 12.34792 103.55147 25151 ft 363 kts 115°
2026-04-30 12:40 12.33738 103.57489 25080 ft 362 kts 115°
2026-04-30 12:40 12.32696 103.59803 25014 ft 362 kts 115°
2026-04-30 12:41 12.31644 103.62141 24938 ft 361 kts 115°
2026-04-30 12:41 12.30579 103.64499 24858 ft 361 kts 115°
2026-04-30 12:41 12.29526 103.66829 24782 ft 361 kts 115°
2026-04-30 12:41 12.28491 103.69126 24713 ft 360 kts 115°
2026-04-30 12:42 12.27443 103.71454 24659 ft 360 kts 115°
2026-04-30 12:42 12.26394 103.73776 24591 ft 359 kts 115°
2026-04-30 12:42 12.25346 103.76095 24519 ft 359 kts 115°
2026-04-30 12:42 12.24301 103.78411 24443 ft 359 kts 115°
2026-04-30 12:43 12.23257 103.80725 24377 ft 358 kts 115°
2026-04-30 12:43 12.22213 103.83036 24196 ft 358 kts 115°
2026-04-30 12:43 12.21172 103.85344 23832 ft 357 kts 115°
2026-04-30 12:43 12.20130 103.87654 23399 ft 358 kts 115°
2026-04-30 12:44 12.19087 103.89961 22933 ft 358 kts 115°
2026-04-30 12:44 12.18042 103.92270 22501 ft 357 kts 115°
2026-04-30 12:44 12.17000 103.94571 22067 ft 356 kts 115°
2026-04-30 12:44 12.15962 103.96868 21635 ft 356 kts 115°
2026-04-30 12:45 12.14938 103.99136 21206 ft 355 kts 115°
2026-04-30 12:45 12.13908 104.01420 20772 ft 354 kts 115°
2026-04-30 12:45 12.12873 104.03709 20337 ft 354 kts 116°
2026-04-30 12:45 12.11840 104.05986 19896 ft 353 kts 116°
2026-04-30 12:46 12.10807 104.08262 19459 ft 353 kts 115°
2026-04-30 12:46 12.09776 104.10536 19023 ft 352 kts 116°
2026-04-30 12:46 12.08745 104.12806 18585 ft 352 kts 116°
2026-04-30 12:46 12.07717 104.15073 18143 ft 351 kts 115°
2026-04-30 12:47 12.06693 104.17331 17661 ft 349 kts 116°
2026-04-30 12:47 12.05674 104.19578 17206 ft 346 kts 115°
2026-04-30 12:47 12.04664 104.21802 16782 ft 344 kts 115°
2026-04-30 12:47 12.03663 104.24008 16346 ft 341 kts 115°
2026-04-30 12:48 12.02665 104.26204 15923 ft 339 kts 115°
2026-04-30 12:48 12.01673 104.28386 15494 ft 337 kts 114°
2026-04-30 12:48 12.00688 104.30554 15079 ft 336 kts 114°
2026-04-30 12:48 11.99709 104.32712 14656 ft 334 kts 114°
2026-04-30 12:49 11.98734 104.34861 14241 ft 333 kts 114°
2026-04-30 12:49 11.97763 104.36999 13820 ft 331 kts 114°
2026-04-30 12:49 11.96794 104.39128 13375 ft 330 kts 114°
2026-04-30 12:49 11.96156 104.40532 13095 ft 328 kts 114°
2026-04-30 12:50 11.95202 104.42631 12694 ft 325 kts 114°
2026-04-30 12:50 11.94254 104.44723 12282 ft 323 kts 114°
2026-04-30 12:50 11.93005 104.47467 11742 ft 320 kts 114°
2026-04-30 12:50 11.92069 104.49522 11417 ft 316 kts 114°
2026-04-30 12:51 11.91450 104.50879 11326 ft 308 kts 114°
2026-04-30 12:51 11.90559 104.52833 11142 ft 300 kts 114°
2026-04-30 12:51 11.89683 104.54755 10844 ft 297 kts 114°
2026-04-30 12:51 11.88814 104.56665 10536 ft 295 kts 114°
2026-04-30 12:52 11.87952 104.58562 10206 ft 293 kts 114°
2026-04-30 12:52 11.87099 104.60437 9901 ft 291 kts 114°
2026-04-30 12:52 11.86246 104.62307 9566 ft 290 kts 114°
2026-04-30 12:52 11.85397 104.64166 9210 ft 288 kts 114°
2026-04-30 12:53 11.84556 104.66013 8851 ft 287 kts 114°
2026-04-30 12:53 11.83715 104.67864 8502 ft 286 kts 114°
2026-04-30 12:53 11.82886 104.69683 8038 ft 281 kts 114°
2026-04-30 12:53 11.82070 104.71468 7430 ft 279 kts 114°
2026-04-30 12:54 11.81239 104.73289 6948 ft 280 kts 114°
2026-04-30 12:54 11.80422 104.75084 6649 ft 278 kts 114°
2026-04-30 12:54 11.79614 104.76858 6115 ft 274 kts 114°
2026-04-30 12:54 11.78826 104.78584 5638 ft 268 kts 114°
2026-04-30 12:55 11.78050 104.80282 5279 ft 262 kts 114°
2026-04-30 12:55 11.77281 104.81965 4930 ft 263 kts 115°
2026-04-30 12:55 11.76510 104.83655 4585 ft 263 kts 115°
2026-04-30 12:55 11.75735 104.85349 4239 ft 264 kts 115°
2026-04-30 12:56 11.74962 104.87041 3888 ft 259 kts 115°
2026-04-30 12:56 11.74216 104.88672 3559 ft 248 kts 115°
2026-04-30 12:56 11.73504 104.90233 3241 ft 239 kts 115°
2026-04-30 12:56 11.72647 104.91658 2956 ft 234 kts 130°
2026-04-30 12:57 11.71508 104.92813 2799 ft 227 kts 136°
2026-04-30 12:57 11.70393 104.93904 2670 ft 217 kts 136°
2026-04-30 12:57 11.69262 104.94855 2578 ft 206 kts 149°
2026-04-30 12:57 11.67969 104.95371 2509 ft 195 kts 168°
2026-04-30 12:58 11.66636 104.95442 2497 ft 191 kts 185°
2026-04-30 12:58 11.65383 104.95114 2468 ft 180 kts 202°
2026-04-30 12:58 11.64337 104.94469 2341 ft 173 kts 218°
2026-04-30 12:58 11.63482 104.93611 2156 ft 171 kts 224°
2026-04-30 12:59 11.62651 104.92745 1955 ft 170 kts 224°
2026-04-30 12:59 11.61833 104.91892 1743 ft 168 kts 225°
2026-04-30 12:59 11.61024 104.91050 1535 ft 164 kts 225°
2026-04-30 12:59 11.60256 104.90249 1341 ft 152 kts 225°
2026-04-30 13:00 11.59552 104.89515 1145 ft 139 kts 225°
2026-04-30 13:00 11.58880 104.88816 982 ft 137 kts 227°
2026-04-30 13:00 11.58219 104.88128 807 ft 135 kts 226°
2026-04-30 13:00 11.57565 104.87447 646 ft 135 kts 227°
2026-04-30 13:01 11.56913 104.86766 460 ft 134 kts 228°
2026-04-30 13:01 11.56255 104.86080 312 ft 135 kts 227°
2026-04-30 13:01 11.55596 104.85396 125 ft 135 kts 228°
2026-04-30 13:01 11.54986 104.84738 56 ft 110 kts 227°
2026-04-30 13:02 11.54558 104.84315 57 ft 64 kts 225°
2026-04-30 13:02 11.54302 104.84039 59 ft 44 kts 225°
2026-04-30 13:02 11.54139 104.83863 61 ft 17 kts 229°
2026-04-30 13:02 11.54166 104.83778 56 ft 16 kts 320°
2026-04-30 13:03 11.54259 104.83757 59 ft 15 kts 30°
2026-04-30 13:03 11.54349 104.83829 58 ft 18 kts 48°
2026-04-30 13:03 11.54433 104.83932 57 ft 21 kts 47°
2026-04-30 13:03 11.54540 104.84046 61 ft 24 kts 45°
2026-04-30 13:04 11.54666 104.84172 56 ft 27 kts 44°
2026-04-30 13:04 11.54805 104.84314 56 ft 30 kts 47°
2026-04-30 13:04 11.54941 104.84462 54 ft 29 kts 46°
2026-04-30 13:04 11.55045 104.84531 56 ft 14 kts 349°
2026-04-30 13:05 11.55082 104.84469 57 ft 10 kts 279°
2026-04-30 13:05 11.55102 104.84446 57 ft 3 kts 315°
2026-04-30 13:05 11.55115 104.84432 56 ft 0 kts 314°